[[{"header":{"parameterUnit":"m.s-1","parameterCategory":1,"la1":30.2991,"la2":30.254,"lo1":-89.0895,"lo2":-89.0444,"dy":0.0017,"dx":0.0017,"nx":28,"ny":28,"refTime":"2025-07-11T09:00:00:Z","depth":0,"parameterNumber":2,"parameterNumberName":"U-component_of_WINDS"},"data":[0,0,0,0,0,0,0,0,0,0,0,0,0,0,0,0,0,0,0,0,0,0,0,0,0,0,0,0,0,0,0,0,0,0,0,0,0,0,0,0,0,0,0,0,0,0,0,0,0,0,0,0,0,0,0,0,0,0,3.0379,3.038,0,3.0481,3.0482,3.0483,3.0468,3.0466,3.0464,3.0463,3.0565,3.057,3.0574,0,0,0,0,0,0,0,0,0,0,0,0,0,3.0167,3.0171,3.0379,3.038,3.0382,3.0481,3.0482,3.0483,3.0468,3.0466,3.0464,3.0462,3.0564,3.0569,3.0574,0,0,0,0,0,0,0,0,0,0,0,0,0,3.0263,3.0173,3.0379,3.0386,3.0388,3.048,3.0482,3.0484,3.0468,3.0466,3.0463,3.0461,3.0562,3.0569,3.0575,3.0667,0,0,3.0595,3.0598,0,0,0,0,0,0,0,0,3.0258,3.0271,3.0384,3.0386,3.0388,3.0459,3.0445,3.0545,3.0469,3.0438,3.0463,3.046,3.0532,3.0541,3.0565,3.0672,3.0676,3.0595,3.0599,3.0602,3.0604,0,0,0,0,0,0,0,3.0251,3.0266,3.0419,3.0385,3.0388,3.0382,3.0393,3.0464,3.0498,3.044,3.0439,3.0452,3.0533,3.0559,3.0568,3.0678,3.0595,3.0601,3.0605,3.0608,3.0859,3.0862,0,0,0,0,0,0,3.0243,3.0261,3.0416,3.0422,3.0315,3.0388,3.0401,3.0439,3.0497,3.0504,3.0454,3.0451,3.0549,3.056,3.0571,3.0679,3.0602,3.0608,3.0612,3.0856,3.086,3.0863,0,0,0,0,0,0,3.0238,3.0257,3.0412,3.0341,3.0361,3.0395,3.0438,3.0442,3.0469,3.0507,3.0513,3.0475,3.0548,3.0562,3.0642,3.0683,3.0611,3.0617,3.0853,3.0857,3.0861,3.0898,0,0,0,0,0,0,3.0232,3.0255,3.0292,3.0342,3.0365,3.0482,3.044,3.0446,3.048,3.0477,3.0529,3.0535,3.0547,3.0633,3.0649,3.069,3.0622,3.085,3.0855,3.086,3.0893,3.0903,3.0911,0,0,0,0,0,3.0225,3.0299,3.0294,3.0313,3.0411,3.0485,3.0497,3.051,3.0484,3.0519,3.0543,3.0533,3.0676,3.0641,3.0659,3.0703,3.0847,3.0853,3.0859,3.0889,3.0901,3.0911,0,0,0,0,0,0,3.0253,3.0306,3.0301,3.0394,3.0435,3.0482,3.0528,3.0523,3.0572,3.0567,3.058,3.0592,3.0672,3.0696,3.0656,3.0793,3.0758,3.0768,3.0774,3.0785,3.0794,3.0786,3.0628,0,0,0,0,0,3.0269,3.0326,3.0369,3.0447,3.0467,3.0494,3.0527,3.0533,3.0576,3.0593,3.0623,3.0665,3.0718,3.0754,3.0806,3.0897,3.0906,3.0936,3.0945,3.0952,3.096,3.1006,3.1018,3.0883,3.0883,3.0883,0,0,3.0305,3.0341,3.0376,3.0453,3.0486,3.0542,3.0509,3.0571,3.0612,3.0602,3.0679,3.0702,3.0749,3.0834,3.0873,3.0856,3.0999,3.096,3.0965,3.0969,3.1013,3.1026,3.1038,3.0887,3.0887,3.0886,0,0,3.0398,3.0432,3.0498,3.0531,3.0581,3.0597,3.0613,3.0661,3.0676,3.0753,3.0745,3.0794,3.0888,3.092,3.0949,3.105,3.1041,3.1066,3.1112,3.1157,3.1167,3.1177,3.121,3.1222,3.1075,3.1075,3.1075,0,3.0435,3.0521,3.0533,3.0595,3.0627,3.0621,3.0686,3.0717,3.0781,3.0803,3.0784,3.0898,3.0929,3.1019,3.1044,3.1069,3.1085,3.106,3.1165,3.1175,3.1184,3.1215,3.1228,3.1077,3.1077,3.1077,3.1076,0,3.0562,3.0622,3.0669,3.073,3.0768,3.0831,3.0851,3.0888,3.089,3.0908,3.0984,3.1021,3.1079,3.1101,3.1104,3.1191,3.1178,3.1162,3.1127,3.1199,3.1228,3.1241,3.1081,3.108,3.1079,3.1079,0,0,3.0676,3.0741,3.0758,3.0783,3.0836,3.0881,3.0943,3.0999,3.1028,3.1072,3.1122,3.12,3.1184,3.1216,3.1223,3.1262,3.1335,3.124,3.1242,3.1254,3.1428,3.1438,3.1452,3.133,3.1332,3.1334,3.1423,0,3.0771,3.0881,3.0892,3.0989,3.1042,3.1035,3.1088,3.1125,3.1143,3.1189,3.1208,3.1261,3.1239,3.1257,3.1296,3.1318,3.137,3.1312,3.1374,3.1376,3.136,3.1468,3.148,3.1562,3.1435,3.1437,3.1439,0,3.0897,3.0943,3.1045,3.1087,3.1109,3.1157,3.1207,3.1252,3.1292,3.1302,3.1337,3.1337,3.1398,3.1361,3.1444,3.1404,3.143,3.1444,3.1448,3.1452,3.141,3.1473,3.1589,3.16,3.1458,3.1456,3.1455,0,3.0965,3.1053,3.1124,3.1147,3.1199,3.1231,3.1254,3.1292,3.1324,3.1367,3.1387,3.1437,3.1464,3.1502,3.1515,3.1488,3.1595,3.1561,3.1603,3.1602,3.1625,3.1623,3.1744,3.1646,3.1646,3.1646,3.1645,0,3.1069,3.1131,3.1155,3.1199,3.1266,3.1278,3.1345,3.1366,3.1399,3.1445,3.1442,3.1485,3.15,3.1545,3.1556,3.162,3.1633,3.1641,3.1642,3.164,3.1638,3.1655,3.1649,3.1649,3.1648,3.1647,3.1647,0,3.1156,3.1175,3.1252,3.1294,3.1305,3.1353,3.1388,3.1429,3.1445,3.1503,3.1517,3.1543,3.1595,3.1611,3.1675,3.1682,3.1756,3.1754,3.1742,3.1742,3.1782,3.1776,3.1916,3.1933,3.1827,3.1828,3.1828,0,3.122,3.1267,3.1313,3.1343,3.1367,3.1417,3.1448,3.1461,3.1493,3.1541,3.1575,3.1627,3.1669,3.1752,3.1775,3.1823,3.182,3.1865,3.1827,3.1821,3.1817,3.1812,3.1815,3.1872,3.1873,3.1874,3.1875,0,3.1329,3.1336,3.1382,3.143,3.1467,3.1506,3.1544,3.1568,3.1586,3.1622,3.1675,3.1708,3.1771,3.1821,3.1869,3.1891,3.1885,3.1887,3.1898,3.1895,3.1885,3.1887,3.1759,3.1883,3.1882,3.1882,3.1881,3.1881,3.1405,3.1444,3.1482,3.1532,3.1561,3.1595,3.1634,3.1655,3.17,3.1752,3.1757,3.1813,3.1849,3.1912,3.1936,3.1979,3.1966,3.1984,3.1988,3.1991,3.1992,3.188,3.1988,3.1988,3.1988,3.1987,3.1987,0,3.1511,3.1534,3.158,3.1632,3.167,3.1662,3.1702,3.1734,3.1784,3.1818,3.1858,3.1917,3.1965,3.1991,3.2038,3.2067,3.2065,3.2079,3.2076,3.208,3.2003,3.1987,3.2079,3.2079,3.2079,3.2079,3.2079,3.2079,3.1571,3.1636,3.1647,3.1726,3.1748,3.1803,3.1826,3.1857,3.1883,3.1949,3.1989,3.2006,3.2036,3.2084,3.2127,3.2133,3.2149,3.2164,3.2168,3.2095,3.2086,3.2077,3.2061,3.2168,3.2168,3.2241,3.2241,3.2242]},{"header":{"parameterUnit":"m.s-1","parameterCategory":1,"la1":30.2991,"la2":30.254,"lo1":-89.0895,"lo2":-89.0444,"dy":0.0017,"dx":0.0017,"nx":28,"ny":28,"refTime":"2025-07-11T09:00:00:Z","depth":0,"parameterNumber":3,"parameterNumberName":"V-component_of_WINDS"},"data":[0,0,0,0,0,0,0,0,0,0,0,0,0,0,0,0,0,0,0,0,0,0,0,0,0,0,0,0,0,0,0,0,0,0,0,0,0,0,0,0,0,0,0,0,0,0,0,0,0,0,0,0,0,0,0,0,0,0,4.5619,4.562,0,4.5668,4.5668,4.5669,4.561,4.5608,4.5606,4.5604,4.5649,4.5652,4.5656,0,0,0,0,0,0,0,0,0,0,0,0,0,4.547,4.5473,4.5619,4.562,4.562,4.5668,4.5668,4.5669,4.561,4.5608,4.5605,4.5603,4.5648,4.5652,4.5656,0,0,0,0,0,0,0,0,0,0,0,0,0,4.5528,4.5474,4.5619,4.5597,4.5596,4.5668,4.5668,4.5669,4.5611,4.5608,4.5605,4.5601,4.5647,4.5652,4.5656,4.5751,0,0,4.5671,4.5673,0,0,0,0,0,0,0,0,4.5525,4.5534,4.56,4.5599,4.5597,4.563,4.5632,4.5697,4.5612,4.5605,4.5604,4.56,4.5645,4.565,4.5666,4.5753,4.5755,4.5672,4.5674,4.5677,4.5678,0,0,0,0,0,0,0,4.5521,4.5531,4.5638,4.5601,4.5599,4.5583,4.5587,4.5644,4.5642,4.5605,4.5601,4.5608,4.5644,4.5661,4.5667,4.5756,4.5671,4.5676,4.5679,4.5681,4.592,4.5923,0,0,0,0,0,0,4.552,4.5528,4.5637,4.564,4.5552,4.5588,4.5593,4.5622,4.5642,4.5642,4.5611,4.5605,4.5655,4.5661,4.5668,4.5778,4.5677,4.5681,4.5684,4.5917,4.5921,4.5925,0,0,0,0,0,0,4.5517,4.553,4.5635,4.5583,4.5595,4.5594,4.5627,4.5625,4.5643,4.5646,4.5645,4.563,4.5652,4.5661,4.573,4.5779,4.5683,4.5688,4.5913,4.5918,4.5923,4.6001,0,0,0,0,0,0,4.5513,4.553,4.5567,4.5584,4.5598,4.5699,4.563,4.5628,4.5652,4.5645,4.5663,4.5663,4.5651,4.5724,4.5735,4.5784,4.5691,4.5908,4.5915,4.5921,4.5994,4.6008,4.602,0,0,0,0,0,4.5508,4.5587,4.557,4.5583,4.5645,4.5702,4.5709,4.5694,4.5656,4.5692,4.5694,4.5662,4.5772,4.5731,4.5744,4.5795,4.5905,4.5913,4.5921,4.5988,4.6005,4.602,0,0,0,0,0,0,4.5575,4.5589,4.557,4.5657,4.5679,4.5692,4.5737,4.5714,4.5746,4.5738,4.5716,4.5721,4.5795,4.5802,4.5756,4.5886,4.5832,4.5843,4.5879,4.5895,4.5908,4.5904,4.5695,0,0,0,0,0,4.56,4.5646,4.5655,4.5731,4.5743,4.5739,4.5763,4.5749,4.577,4.5779,4.5785,4.5806,4.5844,4.587,4.5906,4.5995,4.5996,4.6035,4.6049,4.6059,4.6068,4.6113,4.613,4.595,4.595,4.595,0,0,4.5652,4.5665,4.5696,4.5745,4.576,4.5806,4.5747,4.5799,4.5832,4.5786,4.5852,4.5858,4.5878,4.5957,4.5992,4.5965,4.6118,4.6069,4.6078,4.6081,4.6123,4.614,4.6155,4.5955,4.5955,4.5954,0,0,4.577,4.5786,4.5849,4.5866,4.589,4.5886,4.5901,4.5918,4.592,4.5986,4.5951,4.599,4.6058,4.6073,4.609,4.6212,4.6183,4.6224,4.6292,4.6336,4.635,4.6362,4.6403,4.6419,4.6233,4.6233,4.6234,0,4.5831,4.5901,4.5885,4.5939,4.596,4.5922,4.5985,4.6001,4.6035,4.605,4.6019,4.6102,4.6114,4.6194,4.6224,4.624,4.6254,4.6221,4.6349,4.6362,4.6373,4.6412,4.6427,4.6238,4.6238,4.6237,4.6237,0,4.5973,4.6022,4.607,4.6105,4.6132,4.619,4.6181,4.621,4.6193,4.6192,4.6258,4.6271,4.6307,4.6325,4.631,4.6403,4.6386,4.6353,4.6298,4.6395,4.6431,4.6446,4.6245,4.6243,4.6242,4.6241,0,0,4.6135,4.6159,4.6177,4.6191,4.6213,4.625,4.6305,4.6342,4.6366,4.639,4.6434,4.6492,4.6461,4.648,4.6466,4.6505,4.6597,4.6467,4.6467,4.6489,4.6697,4.6721,4.6738,4.6579,4.6582,4.6584,4.6695,0,4.6251,4.6348,4.6335,4.6427,4.647,4.6433,4.6481,4.6499,4.6499,4.6534,4.6533,4.6573,4.6531,4.6541,4.6578,4.6578,4.6638,4.657,4.6617,4.6619,4.6612,4.6758,4.6783,4.6887,4.6709,4.6712,4.6713,0,4.64,4.643,4.6527,4.6541,4.6558,4.6602,4.6633,4.6668,4.6686,4.6683,4.6704,4.6682,4.6735,4.668,4.6751,4.6705,4.6723,4.6726,4.673,4.6732,4.6671,4.6762,4.6921,4.6935,4.6736,4.6734,4.6732,0,4.6505,4.657,4.6636,4.6649,4.6668,4.6698,4.6707,4.6723,4.6745,4.6772,4.6785,4.6818,4.6835,4.686,4.6847,4.6809,4.6919,4.6864,4.6916,4.6916,4.694,4.6938,4.7101,4.6955,4.6955,4.6954,4.6954,0,4.6636,4.6696,4.6683,4.6723,4.6788,4.6771,4.6836,4.684,4.6854,4.6892,4.6862,4.6899,4.688,4.6915,4.6905,4.6964,4.6972,4.6969,4.6966,4.6971,4.6971,4.6982,4.6973,4.6958,4.6958,4.6957,4.6956,0,4.6764,4.6758,4.6827,4.6838,4.6843,4.689,4.6899,4.6935,4.6932,4.6982,4.6992,4.6987,4.7026,4.7016,4.7058,4.7051,4.7125,4.7113,4.7119,4.7115,4.7167,4.7162,4.7341,4.7363,4.7205,4.7206,4.7207,0,4.6847,4.6892,4.6908,4.6932,4.6944,4.6983,4.7005,4.699,4.7014,4.7037,4.707,4.7107,4.7135,4.7199,4.7198,4.7229,4.7217,4.7278,4.7221,4.7224,4.7215,4.7212,4.7215,4.7288,4.729,4.7292,4.7293,0,4.6993,4.6988,4.7022,4.7054,4.7082,4.7107,4.7128,4.7149,4.7135,4.7163,4.7203,4.7225,4.7268,4.7304,4.7332,4.7339,4.7313,4.7311,4.7324,4.7329,4.733,4.7328,4.7147,4.7306,4.7305,4.7304,4.7303,4.7303,4.71,4.7137,4.7154,4.7192,4.7207,4.7227,4.7261,4.7263,4.7296,4.733,4.7319,4.7364,4.7378,4.7414,4.7425,4.7459,4.7435,4.7455,4.746,4.7464,4.747,4.7326,4.7464,4.7464,4.7463,4.7463,4.7463,0,4.7242,4.7251,4.7287,4.7318,4.7347,4.7321,4.7343,4.7369,4.7409,4.7426,4.7454,4.7499,4.7533,4.7535,4.7566,4.7593,4.7581,4.7601,4.7598,4.76,4.749,4.7474,4.761,4.761,4.761,4.761,4.761,4.761,4.732,4.7382,4.7378,4.7445,4.7453,4.7497,4.7512,4.753,4.7543,4.7594,4.7622,4.7624,4.7634,4.7665,4.7695,4.7694,4.7706,4.773,4.7725,4.7622,4.7608,4.7594,4.7579,4.7734,4.7734,4.7831,4.7832,4.7833]}]]